Battle Mountain, Nevada, United States (89820)
Lat: 40.64N, Lon: 116.93W
Wx Zone: NVZ036
Local Info
Past Weather Observations for Monday, October 27, 2014

NOTE: This archive is for the closest National Weather Service station to Battle Mountain. Information may differ from the station used for current weather conditions.

Click here for Long-term Archive

Time Weather Temperature Dewpoint Humidity Pressure Winds Precip Visibility
23:56
Clear
25°F / -4°C 12°F / -11°C 59% 30.18 in
(1022 mb)
SE 5.8 mph
(SE 9 kph)
- 10SM
22:56
Clear
25°F / -4°C 14°F / -10°C 63% 30.15 in
(1021 mb)
SSE 4.6 mph
(SSE 7 kph)
- 10SM
21:56
Clear
28°F / -2°C 16°F / -9°C 59% 30.15 in
(1021 mb)
Variable 4.6 mph
(Variable 7 kph)
- 10SM
20:56
Clear
36°F / 2°C 21°F / -6°C 56% 30.15 in
(1021 mb)
N 4.6 mph
(N 7 kph)
- 10SM
19:56
Clear
43°F / 6°C 23°F / -5°C 46% 30.12 in
(1020 mb)
NE 6.9 mph
(NE 11 kph)
- 10SM
18:56
Clear
45°F / 7°C 21°F / -6°C 39% 30.12 in
(1020 mb)
NE 10.4 mph
(NE 17 kph)
- 10SM
17:56
Clear
45°F / 7°C 21°F / -6°C 39% 30.12 in
(1020 mb)
NE 9.2 mph
(NE 15 kph)
- 10SM
16:56
Clear
48°F / 9°C 21°F / -6°C 34% 30.09 in
(1019 mb)
NNE 8.1 mph
(NNE 13 kph)
- 10SM
15:56
Partly Cloudy
54°F / 12°C 21°F / -6°C 28% 30.09 in
(1019 mb)
NNE 10.4 mph
(NNE 17 kph)
- 10SM
14:56
Mostly Cloudy
55°F / 13°C 21°F / -6°C 26% 30.09 in
(1019 mb)
N 10.4 mph
(N 17 kph)
- 10SM
13:56
Mostly Cloudy
54°F / 12°C 23°F / -5°C 30% 30.09 in
(1019 mb)
NE 10.4 mph
(NE 17 kph)
- 10SM
12:56
Overcast
52°F / 11°C 25°F / -4°C 35% 30.12 in
(1020 mb)
Variable 4.6 mph
(Variable 7 kph)
- 10SM
11:56
Overcast
52°F / 11°C 25°F / -4°C 35% 30.15 in
(1021 mb)
Calm - 10SM
10:56
Partly Cloudy
50°F / 10°C 25°F / -4°C 37% 30.15 in
(1021 mb)
N 13.8 mph
(N 22 kph)
- 10SM
09:56
Partly Cloudy
45°F / 7°C 25°F / -4°C 46% 30.18 in
(1022 mb)
NE 6.9 mph
(NE 11 kph)
- 10SM
08:56
Clear
41°F / 5°C 25°F / -4°C 53% 30.18 in
(1022 mb)
NE 12.7 mph
(NE 20 kph)
- 10SM
07:56
Clear
37°F / 3°C 25°F / -4°C 60% 30.18 in
(1022 mb)
ENE 10.4 mph
(ENE 17 kph)
- 10SM
06:56
Clear
23°F / -5°C 16°F / -9°C 74% 30.18 in
(1022 mb)
ESE 8.1 mph
(ESE 13 kph)
- 10SM
04:56
Clear
19°F / -7°C 12°F / -11°C 73% 30.18 in
(1022 mb)
SE 3.5 mph
(SE 6 kph)
- 10SM
03:56
Clear
19°F / -7°C 16°F / -9°C 86% 30.18 in
(1022 mb)
SE 5.8 mph
(SE 9 kph)
- 10SM
02:56
Clear
21°F / -6°C 16°F / -9°C 80% 30.15 in
(1021 mb)
SE 3.5 mph
(SE 6 kph)
- 10SM
01:56
Clear
23°F / -5°C 16°F / -9°C 74% 30.15 in
(1021 mb)
SE 8.1 mph
(SE 13 kph)
- 10SM
00:56
Clear
23°F / -5°C 16°F / -9°C 74% 30.15 in
(1021 mb)
SSE 5.8 mph
(SSE 9 kph)
- 10SM
Time Weather Temperature Dewpoint Humidity Pressure Winds Precip Visibility


Weather for websites

WeatherForYou.com, LLC is not responsible for any damages or problems caused by this service. Current weather conditions are obtained from the closest station including government and personal stations which may have varying degrees of accuracy. Weather forecasts are derived from the NOAA NDFD. Like all things, this site belongs to Jesus Christ... He just trusts me to maintain it. If you have any questions or comments email webmaster@weatherforyou.com

Copyright © 2014, WeatherForYou.com LLC. All rights reserved.